nws-alerts: Checking more than four warning/county codes can delay the loading of your pages. You should use a cron job to get the data.
EllijayWeather Station Historical Data
Daily Summary for March 28, 2019 Units:  English    Metric   Both
Daily Weekly Monthly Yearly Custom
  High: Low: Average:
Temperature: 66.4 °F 30.9 °F 48.9 °F
Dew Point: 36.1 °F 25.0 °F 31 °F
Humidity: 92% 22% 57%
Wind Speed: 6.0mph 0.0mph 0.2mph
Wind Gust: 7.0mph - -
Wind- - SE
Pressure: 30.47 in 30.29 in -
Precipitation: 0.00 in    
Historical Graphs
 
 
Tabular Data for March 28, 2019
Time Temperature Dew Point Pressure Wind Wind Speed Wind Gust Humidity Rainfall Rate (Hourly) solar
00:04 41.2 °F 33.8 °F 30.40 in Calm     75% 0.00 in meteobridge W/m2
00:09 41.0 °F 34.0 °F 30.40 in Calm     76% 0.00 in meteobridge W/m2
00:14 41.0 °F 34.0 °F 30.40 in Calm     76% 0.00 in meteobridge W/m2
00:19 40.8 °F 33.8 °F 30.40 in Calm     76% 0.00 in meteobridge W/m2
00:24 40.8 °F 33.4 °F 30.40 in Calm     75% 0.00 in meteobridge W/m2
00:29 40.8 °F 34.2 °F 30.40 in Calm     77% 0.00 in meteobridge W/m2
00:34 40.6 °F 34.3 °F 30.40 in Calm     78% 0.00 in meteobridge W/m2
00:39 40.5 °F 33.4 °F 30.40 in Calm     76% 0.00 in meteobridge W/m2
00:44 40.3 °F 33.3 °F 30.40 in Calm     76% 0.00 in meteobridge W/m2
00:49 40.3 °F 33.3 °F 30.40 in Calm     76% 0.00 in meteobridge W/m2
00:54 40.1 °F 33.4 °F 30.40 in Calm     77% 0.00 in meteobridge W/m2
00:59 39.9 °F 33.6 °F 30.40 in Calm     78% 0.00 in meteobridge W/m2
01:04 39.7 °F 33.8 °F 30.40 in Calm     79% 0.00 in meteobridge W/m2
01:09 39.6 °F 33.3 °F 30.41 in Calm     78% 0.00 in meteobridge W/m2
01:14 39.4 °F 33.4 °F 30.41 in Calm     79% 0.00 in meteobridge W/m2
01:19 39.0 °F 33.1 °F 30.41 in Calm     79% 0.00 in meteobridge W/m2
01:24 38.8 °F 32.9 °F 30.41 in Calm     79% 0.00 in meteobridge W/m2
01:29 38.7 °F 33.1 °F 30.41 in Calm     80% 0.00 in meteobridge W/m2
01:34 38.7 °F 33.1 °F 30.40 in Calm     80% 0.00 in meteobridge W/m2
01:39 38.3 °F 32.7 °F 30.40 in Calm     80% 0.00 in meteobridge W/m2
01:44 38.1 °F 32.7 °F 30.40 in Calm     81% 0.00 in meteobridge W/m2
01:48 37.9 °F 32.4 °F 30.40 in Calm     80% 0.00 in meteobridge W/m2
01:54 37.9 °F 32.4 °F 30.40 in Calm     80% 0.00 in meteobridge W/m2
01:59 37.8 °F 32.5 °F 30.40 in Calm     81% 0.00 in meteobridge W/m2
02:04 37.6 °F 32.4 °F 30.40 in Calm     81% 0.00 in meteobridge W/m2
02:09 37.4 °F 32.4 °F 30.40 in Calm     82% 0.00 in meteobridge W/m2
02:14 37.2 °F 32.2 °F 30.40 in Calm     82% 0.00 in meteobridge W/m2
02:19 37.2 °F 32.2 °F 30.40 in Calm     82% 0.00 in meteobridge W/m2
02:24 37.0 °F 32.4 °F 30.40 in Calm     83% 0.00 in meteobridge W/m2
02:29 36.9 °F 32.5 °F 30.40 in Calm     84% 0.00 in meteobridge W/m2
02:34 36.9 °F 32.5 °F 30.40 in Calm     84% 0.00 in meteobridge W/m2
02:39 36.7 °F 32.0 °F 30.40 in Calm     83% 0.00 in meteobridge W/m2
02:44 36.5 °F 32.2 °F 30.40 in Calm     84% 0.00 in meteobridge W/m2
02:49 36.3 °F 32.0 °F 30.40 in Calm     84% 0.00 in meteobridge W/m2
02:54 36.3 °F 32.0 °F 30.40 in Calm     84% 0.00 in meteobridge W/m2
02:59 36.1 °F 31.8 °F 30.40 in Calm     84% 0.00 in meteobridge W/m2
03:04 36.1 °F 31.8 °F 30.40 in Calm     84% 0.00 in meteobridge W/m2
03:09 36.1 °F 31.8 °F 30.40 in Calm     84% 0.00 in meteobridge W/m2
03:14 36.1 °F 31.8 °F 30.40 in Calm     84% 0.00 in meteobridge W/m2
03:19 36.0 °F 31.8 °F 30.40 in Calm     85% 0.00 in meteobridge W/m2
03:24 36.0 °F 31.8 °F 30.40 in Calm     85% 0.00 in meteobridge W/m2
03:29 35.8 °F 31.6 °F 30.40 in Calm     85% 0.00 in meteobridge W/m2
03:34 35.8 °F 31.6 °F 30.40 in Calm     85% 0.00 in meteobridge W/m2
03:39 35.6 °F 31.5 °F 30.40 in Calm     85% 0.00 in meteobridge W/m2
03:44 35.4 °F 31.3 °F 30.40 in Calm     85% 0.00 in meteobridge W/m2
03:49 35.2 °F 31.5 °F 30.40 in Calm     86% 0.00 in meteobridge W/m2
03:54 35.2 °F 31.5 °F 30.40 in Calm     86% 0.00 in meteobridge W/m2
03:59 35.1 °F 31.3 °F 30.39 in Calm     86% 0.00 in meteobridge W/m2
04:04 34.9 °F 31.1 °F 30.40 in Calm     86% 0.00 in meteobridge W/m2
04:09 34.9 °F 31.1 °F 30.40 in Calm     86% 0.00 in meteobridge W/m2
04:14 34.9 °F 31.1 °F 30.40 in Calm     86% 0.00 in meteobridge W/m2
04:19 34.9 °F 31.5 °F 30.40 in Calm     87% 0.00 in meteobridge W/m2
04:24 34.7 °F 30.9 °F 30.40 in Calm     86% 0.00 in meteobridge W/m2
04:29 34.7 °F 30.9 °F 30.40 in Calm     86% 0.00 in meteobridge W/m2
04:34 34.7 °F 31.3 °F 30.40 in Calm     87% 0.00 in meteobridge W/m2
04:39 34.7 °F 30.9 °F 30.40 in Calm     86% 0.00 in meteobridge W/m2
04:44 34.5 °F 31.1 °F 30.40 in Calm     87% 0.00 in meteobridge W/m2
04:49 34.5 °F 31.1 °F 30.40 in Calm     87% 0.00 in meteobridge W/m2
04:54 34.3 °F 30.9 °F 30.40 in Calm     87% 0.00 in meteobridge W/m2
04:59 34.3 °F 30.9 °F 30.40 in Calm     87% 0.00 in meteobridge W/m2
05:04 34.2 °F 30.7 °F 30.40 in Calm     87% 0.00 in meteobridge W/m2
05:09 34.2 °F 30.9 °F 30.40 in Calm     88% 0.00 in meteobridge W/m2
05:14 34.2 °F 30.9 °F 30.40 in Calm     88% 0.00 in meteobridge W/m2
05:19 34.2 °F 30.9 °F 30.40 in Calm     88% 0.00 in meteobridge W/m2
05:24 34.0 °F 30.7 °F 30.40 in Calm     88% 0.00 in meteobridge W/m2
05:29 34.0 °F 30.7 °F 30.40 in Calm     88% 0.00 in meteobridge W/m2
05:34 33.8 °F 30.6 °F 30.40 in Calm     88% 0.00 in meteobridge W/m2
05:39 33.6 °F 30.4 °F 30.40 in Calm     88% 0.00 in meteobridge W/m2
05:44 33.6 °F 30.4 °F 30.41 in Calm     88% 0.00 in meteobridge W/m2
05:49 33.6 °F 30.4 °F 30.41 in Calm     88% 0.00 in meteobridge W/m2
05:54 33.6 °F 30.4 °F 30.41 in Calm     88% 0.00 in meteobridge W/m2
05:59 33.4 °F 30.0 °F 30.42 in Calm     87% 0.00 in meteobridge W/m2
06:04 33.3 °F 30.0 °F 30.42 in Calm     88% 0.00 in meteobridge W/m2
06:09 33.3 °F 30.0 °F 30.42 in Calm     88% 0.00 in meteobridge W/m2
06:14 33.1 °F 30.2 °F 30.42 in Calm     89% 0.00 in meteobridge W/m2
06:19 32.9 °F 30.0 °F 30.42 in Calm     89% 0.00 in meteobridge W/m2
06:24 32.9 °F 30.0 °F 30.42 in Calm     89% 0.00 in meteobridge W/m2
06:29 32.7 °F 29.5 °F 30.42 in Calm     88% 0.00 in meteobridge W/m2
06:34 32.7 °F 29.5 °F 30.42 in Calm     88% 0.00 in meteobridge W/m2
06:39 32.5 °F 29.3 °F 30.43 in Calm     88% 0.00 in meteobridge W/m2
06:44 32.5 °F 29.3 °F 30.43 in Calm     88% 0.00 in meteobridge W/m2
06:49 32.4 °F 29.1 °F 30.43 in Calm     88% 0.00 in meteobridge W/m2
06:54 32.4 °F 29.1 °F 30.43 in Calm     88% 0.00 in meteobridge W/m2
06:59 32.0 °F 28.9 °F 30.43 in Calm     88% 0.00 in meteobridge W/m2
07:04 31.8 °F 28.9 °F 30.43 in Calm     89% 0.00 in meteobridge W/m2
07:09 31.6 °F 29.1 °F 30.43 in Calm     90% 0.00 in meteobridge W/m2
07:14 31.6 °F 29.1 °F 30.43 in Calm     90% 0.00 in meteobridge W/m2
07:19 31.5 °F 28.9 °F 30.44 in Calm     90% 0.00 in meteobridge W/m2
07:24 31.3 °F 28.8 °F 30.44 in Calm     90% 0.00 in meteobridge W/m2
07:29 31.3 °F 28.8 °F 30.44 in Calm     90% 0.00 in meteobridge W/m2
07:34 31.1 °F 28.6 °F 30.44 in Calm     90% 0.00 in meteobridge W/m2
07:39 31.1 °F 28.8 °F 30.44 in Calm     91% 0.00 in meteobridge W/m2
07:44 30.9 °F 28.6 °F 30.44 in Calm     91% 0.00 in meteobridge W/m2
07:49 30.9 °F 28.6 °F 30.45 in Calm     91% 0.00 in meteobridge W/m2
07:54 30.9 °F 28.6 °F 30.45 in Calm     91% 0.00 in meteobridge W/m2
07:59 30.9 °F 28.6 °F 30.45 in Calm     91% 0.00 in meteobridge W/m2
08:04 30.9 °F 28.6 °F 30.45 in Calm     91% 0.00 in meteobridge W/m2
08:09 30.9 °F 28.6 °F 30.45 in Calm     91% 0.00 in meteobridge W/m2
08:14 31.1 °F 29.1 °F 30.45 in Calm     92% 0.00 in meteobridge W/m2
08:19 31.3 °F 29.3 °F 30.45 in Calm     92% 0.00 in meteobridge W/m2
08:24 31.5 °F 29.5 °F 30.45 in Calm     92% 0.00 in meteobridge W/m2
08:29 31.6 °F 29.7 °F 30.45 in Calm     92% 0.00 in meteobridge W/m2
08:34 32.2 °F 30.2 °F 30.45 in Calm     92% 0.00 in meteobridge W/m2
08:39 32.5 °F 30.6 °F 30.45 in Calm     92% 0.00 in meteobridge W/m2
08:44 32.9 °F 30.9 °F 30.46 in Calm     92% 0.00 in meteobridge W/m2
08:49 33.4 °F 31.1 °F 30.46 in Calm     91% 0.00 in meteobridge W/m2
08:54 33.6 °F 31.3 °F 30.46 in Calm     91% 0.00 in meteobridge W/m2
08:59 34.2 °F 31.8 °F 30.46 in Calm     91% 0.00 in meteobridge W/m2
09:04 34.7 °F 32.0 °F 30.46 in Calm     90% 0.00 in meteobridge W/m2
09:09 35.4 °F 32.7 °F 30.46 in Calm     90% 0.00 in meteobridge W/m2
09:14 36.1 °F 32.0 °F 30.46 in Calm     85% 0.00 in meteobridge W/m2
09:19 37.0 °F 32.9 °F 30.46 in Calm     85% 0.00 in meteobridge W/m2
09:24 37.9 °F 32.4 °F 30.46 in Calm     80% 0.00 in meteobridge W/m2
09:29 38.8 °F 33.4 °F 30.46 in Calm     81% 0.00 in meteobridge W/m2
09:34 39.7 °F 33.8 °F 30.46 in Calm     79% 0.00 in meteobridge W/m2
09:39 40.3 °F 34.5 °F 30.46 in Calm     80% 0.00 in meteobridge W/m2
09:44 41.2 °F 36.1 °F 30.47 in Calm     82% 0.00 in meteobridge W/m2
09:49 42.1 °F 35.4 °F 30.47 in Calm     77% 0.00 in meteobridge W/m2
09:54 43.2 °F 34.3 °F 30.47 in Calm     71% 0.00 in meteobridge W/m2
09:59 44.1 °F 34.2 °F 30.47 in Calm     68% 0.00 in meteobridge W/m2
10:04 45.1 °F 34.9 °F 30.47 in Calm     67% 0.00 in meteobridge W/m2
10:09 46.2 °F 33.1 °F 30.47 in Calm     60% 0.00 in meteobridge W/m2
10:14 47.7 °F 32.4 °F 30.47 in Calm     55% 0.00 in meteobridge W/m2
10:19 48.9 °F 30.6 °F 30.47 in Calm     49% 0.00 in meteobridge W/m2
10:24 49.6 °F 30.7 °F 30.47 in Calm   1.0 mph 48% 0.00 in meteobridge W/m2
10:29 50.2 °F 30.2 °F 30.47 in Calm     46% 0.00 in meteobridge W/m2
10:34 50.7 °F 30.2 °F 30.47 in Calm     45% 0.00 in meteobridge W/m2
10:39 51.4 °F 30.2 °F 30.47 in Calm     44% 0.00 in meteobridge W/m2
10:44 52.0 °F 31.3 °F 30.47 in Calm     45% 0.00 in meteobridge W/m2
10:49 52.5 °F 31.8 °F 30.47 in ESE 0.9 mph 1.0 mph 45% 0.00 in meteobridge W/m2
10:54 53.8 °F 30.6 °F 30.47 in Calm   4.0 mph 41% 0.00 in meteobridge W/m2
10:59 54.3 °F 31.6 °F 30.47 in Calm   2.0 mph 42% 0.00 in meteobridge W/m2
11:04 55.0 °F 29.3 °F 30.47 in Calm     37% 0.00 in meteobridge W/m2
11:09 55.6 °F 29.7 °F 30.47 in Calm   4.0 mph 37% 0.00 in meteobridge W/m2
11:14 56.3 °F 30.4 °F 30.47 in Calm     37% 0.00 in meteobridge W/m2
11:19 56.8 °F 30.9 °F 30.47 in Calm   1.0 mph 37% 0.00 in meteobridge W/m2
11:24 57.2 °F 30.6 °F 30.47 in Calm   1.0 mph 36% 0.00 in meteobridge W/m2
11:29 57.7 °F 30.2 °F 30.47 in Calm   2.0 mph 35% 0.00 in meteobridge W/m2
11:34 58.3 °F 30.7 °F 30.47 in Calm   1.0 mph 35% 0.00 in meteobridge W/m2
11:39 58.6 °F 30.4 °F 30.47 in Calm   1.0 mph 34% 0.00 in meteobridge W/m2
11:44 58.6 °F 30.4 °F 30.46 in Calm   1.0 mph 34% 0.00 in meteobridge W/m2
11:49 58.8 °F 32.5 °F 30.46 in Calm   2.0 mph 37% 0.00 in meteobridge W/m2
11:54 59.2 °F 31.5 °F 30.45 in Calm   1.0 mph 35% 0.00 in meteobridge W/m2
11:59 59.4 °F 30.2 °F 30.45 in East 2.0 mph 2.0 mph 33% 0.00 in meteobridge W/m2
12:04 59.5 °F 30.4 °F 30.45 in Calm   1.0 mph 33% 0.00 in meteobridge W/m2
12:09 59.5 °F 29.7 °F 30.45 in Calm   2.0 mph 32% 0.00 in meteobridge W/m2
12:14 59.7 °F 30.6 °F 30.45 in Calm   2.0 mph 33% 0.00 in meteobridge W/m2
12:19 60.4 °F 29.7 °F 30.45 in Calm   1.0 mph 31% 0.00 in meteobridge W/m2
12:24 60.3 °F 30.2 °F 30.44 in Calm   3.0 mph 32% 0.00 in meteobridge W/m2
12:29 61.0 °F 31.6 °F 30.44 in NE 0.9 mph 2.0 mph 33% 0.00 in meteobridge W/m2
12:34 61.0 °F 30.2 °F 30.44 in Calm   1.0 mph 31% 0.00 in meteobridge W/m2
12:39 61.2 °F 30.2 °F 30.43 in Calm   1.0 mph 31% 0.00 in meteobridge W/m2
12:44 61.3 °F 30.4 °F 30.43 in Calm   3.0 mph 31% 0.00 in meteobridge W/m2
12:49 61.5 °F 30.6 °F 30.42 in ESE 0.9 mph 1.0 mph 31% 0.00 in meteobridge W/m2
12:54 61.7 °F 31.5 °F 30.42 in WNW 2.0 mph 2.0 mph 32% 0.00 in meteobridge W/m2
12:59 61.9 °F 31.6 °F 30.42 in Calm   1.0 mph 32% 0.00 in meteobridge W/m2
13:04 62.1 °F 31.8 °F 30.42 in Calm   3.0 mph 32% 0.00 in meteobridge W/m2
13:09 62.1 °F 30.2 °F 30.42 in NW 2.9 mph 4.0 mph 30% 0.00 in meteobridge W/m2
13:14 62.1 °F 31.8 °F 30.42 in Calm     32% 0.00 in meteobridge W/m2
13:19 62.2 °F 31.3 °F 30.41 in Calm   2.0 mph 31% 0.00 in meteobridge W/m2
13:24 62.6 °F 32.4 °F 30.41 in East 0.9 mph 1.0 mph 32% 0.00 in meteobridge W/m2
13:29 63.0 °F 31.1 °F 30.41 in Calm   1.0 mph 30% 0.00 in meteobridge W/m2
13:34 63.0 °F 31.8 °F 30.41 in Calm   1.0 mph 31% 0.00 in meteobridge W/m2
13:39 62.8 °F 30.9 °F 30.40 in Calm   1.0 mph 30% 0.00 in meteobridge W/m2
13:44 62.8 °F 30.9 °F 30.40 in Calm   7.0 mph 30% 0.00 in meteobridge W/m2
13:49 63.0 °F 31.1 °F 30.40 in SSE 2.0 mph 4.0 mph 30% 0.00 in meteobridge W/m2
13:54 63.3 °F 30.6 °F 30.40 in Calm     29% 0.00 in meteobridge W/m2
13:59 63.5 °F 31.5 °F 30.39 in Calm   2.0 mph 30% 0.00 in meteobridge W/m2
14:04 63.9 °F 31.8 °F 30.38 in NW 6.0 mph 6.0 mph 30% 0.00 in meteobridge W/m2
14:09 64.0 °F 32.0 °F 30.38 in Calm   1.0 mph 30% 0.00 in meteobridge W/m2
14:14 64.2 °F 32.9 °F 30.38 in North 2.9 mph 4.0 mph 31% 0.00 in meteobridge W/m2
14:19 64.2 °F 32.2 °F 30.37 in Calm   2.0 mph 30% 0.00 in meteobridge W/m2
14:24 64.6 °F 30.7 °F 30.37 in SSE 4.0 mph 5.0 mph 28% 0.00 in meteobridge W/m2
14:29 64.8 °F 30.9 °F 30.37 in NE 2.9 mph 3.0 mph 28% 0.00 in meteobridge W/m2
14:34 64.8 °F 30.9 °F 30.37 in NNE 4.0 mph 4.0 mph 28% 0.00 in meteobridge W/m2
14:39 65.1 °F 31.3 °F 30.36 in Calm   2.0 mph 28% 0.00 in meteobridge W/m2
14:44 65.1 °F 32.0 °F 30.36 in ESE 0.9 mph 4.0 mph 29% 0.00 in meteobridge W/m2
14:49 65.3 °F 31.3 °F 30.36 in Calm   5.0 mph 28% 0.00 in meteobridge W/m2
14:54 65.1 °F 30.4 °F 30.35 in SSW 2.0 mph 2.0 mph 27% 0.00 in meteobridge W/m2
14:59 65.5 °F 30.6 °F 30.35 in Calm   4.0 mph 27% 0.00 in meteobridge W/m2
15:04 65.7 °F 30.7 °F 30.34 in Calm   2.0 mph 27% 0.00 in meteobridge W/m2
15:09 65.8 °F 31.8 °F 30.34 in ESE 0.9 mph 2.0 mph 28% 0.00 in meteobridge W/m2
15:14 65.8 °F 31.8 °F 30.34 in Calm   1.0 mph 28% 0.00 in meteobridge W/m2
15:19 65.8 °F 30.9 °F 30.33 in Calm   4.0 mph 27% 0.00 in meteobridge W/m2
15:24 65.8 °F 30.9 °F 30.33 in Calm   1.0 mph 27% 0.00 in meteobridge W/m2
15:29 65.8 °F 30.9 °F 30.33 in Calm   3.0 mph 27% 0.00 in meteobridge W/m2
15:34 65.8 °F 30.9 °F 30.32 in Calm   1.0 mph 27% 0.00 in meteobridge W/m2
15:39 66.4 °F 31.5 °F 30.32 in ESE 2.0 mph 4.0 mph 27% 0.00 in meteobridge W/m2
15:44 66.0 °F 30.2 °F 30.32 in Calm   4.0 mph 26% 0.00 in meteobridge W/m2
15:49 66.0 °F 31.1 °F 30.32 in Calm   2.0 mph 27% 0.00 in meteobridge W/m2
15:54 66.0 °F 31.1 °F 30.32 in Calm   1.0 mph 27% 0.00 in meteobridge W/m2
15:59 66.0 °F 29.1 °F 30.31 in Calm   1.0 mph 25% 0.00 in meteobridge W/m2
16:04 65.8 °F 28.9 °F 30.31 in Calm   2.0 mph 25% 0.00 in meteobridge W/m2
16:09 65.8 °F 28.9 °F 30.30 in Calm   1.0 mph 25% 0.00 in meteobridge W/m2
16:14 66.2 °F 30.4 °F 30.30 in Calm   4.0 mph 26% 0.00 in meteobridge W/m2
16:19 66.2 °F 29.3 °F 30.30 in ESE 4.0 mph 4.0 mph 25% 0.00 in meteobridge W/m2
16:24 66.2 °F 32.2 °F 30.30 in Calm   2.0 mph 28% 0.00 in meteobridge W/m2
16:29 66.2 °F 29.3 °F 30.30 in Calm   1.0 mph 25% 0.00 in meteobridge W/m2
16:34 66.0 °F 29.1 °F 30.30 in SE 2.0 mph 2.0 mph 25% 0.00 in meteobridge W/m2
16:39 66.0 °F 29.1 °F 30.30 in Calm   2.0 mph 25% 0.00 in meteobridge W/m2
16:44 65.8 °F 28.9 °F 30.30 in Calm   5.0 mph 25% 0.00 in meteobridge W/m2
16:49 66.0 °F 30.2 °F 30.29 in Calm   5.0 mph 26% 0.00 in meteobridge W/m2
16:54 66.0 °F 28.2 °F 30.30 in Calm   2.0 mph 24% 0.00 in meteobridge W/m2
16:59 66.0 °F 29.1 °F 30.30 in Calm   1.0 mph 25% 0.00 in meteobridge W/m2
17:04 65.8 °F 28.9 °F 30.30 in SE 0.9 mph 1.0 mph 25% 0.00 in meteobridge W/m2
17:09 65.8 °F 28.9 °F 30.29 in Calm   1.0 mph 25% 0.00 in meteobridge W/m2
17:14 65.7 °F 27.9 °F 30.29 in Calm   2.0 mph 24% 0.00 in meteobridge W/m2
17:19 65.7 °F 27.9 °F 30.29 in Calm   1.0 mph 24% 0.00 in meteobridge W/m2
17:24 65.7 °F 27.9 °F 30.29 in Calm   1.0 mph 24% 0.00 in meteobridge W/m2
17:29 65.7 °F 27.9 °F 30.30 in Calm   1.0 mph 24% 0.00 in meteobridge W/m2
17:34 65.5 °F 26.8 °F 30.30 in Calm   2.0 mph 23% 0.00 in meteobridge W/m2
17:39 65.3 °F 27.5 °F 30.31 in Calm   1.0 mph 24% 0.00 in meteobridge W/m2
17:44 65.3 °F 25.5 °F 30.30 in Calm     22% 0.00 in meteobridge W/m2
17:49 65.3 °F 28.6 °F 30.30 in Calm   1.0 mph 25% 0.00 in meteobridge W/m2
17:54 64.9 °F 25.2 °F 30.30 in Calm   4.0 mph 22% 0.00 in meteobridge W/m2
17:59 64.9 °F 25.2 °F 30.30 in SE 0.9 mph 2.0 mph 22% 0.00 in meteobridge W/m2
18:04 64.8 °F 25.0 °F 30.30 in Calm     22% 0.00 in meteobridge W/m2
18:09 64.9 °F 27.3 °F 30.30 in NW 0.9 mph 1.0 mph 24% 0.00 in meteobridge W/m2
18:14 64.9 °F 27.3 °F 30.30 in Calm   1.0 mph 24% 0.00 in meteobridge W/m2
18:19 64.8 °F 27.1 °F 30.31 in Calm     24% 0.00 in meteobridge W/m2
18:24 64.4 °F 27.9 °F 30.31 in Calm     25% 0.00 in meteobridge W/m2
18:29 64.2 °F 27.7 °F 30.31 in Calm     25% 0.00 in meteobridge W/m2
18:34 64.0 °F 28.4 °F 30.30 in Calm     26% 0.00 in meteobridge W/m2
18:39 63.9 °F 28.2 °F 30.31 in Calm     26% 0.00 in meteobridge W/m2
18:44 63.7 °F 28.2 °F 30.30 in Calm     26% 0.00 in meteobridge W/m2
18:49 63.5 °F 28.0 °F 30.30 in Calm     26% 0.00 in meteobridge W/m2
18:54 63.3 °F 29.7 °F 30.30 in Calm     28% 0.00 in meteobridge W/m2
18:59 63.1 °F 28.6 °F 30.31 in Calm     27% 0.00 in meteobridge W/m2
19:04 62.8 °F 30.0 °F 30.31 in Calm     29% 0.00 in meteobridge W/m2
19:09 62.4 °F 28.9 °F 30.31 in Calm     28% 0.00 in meteobridge W/m2
19:14 62.2 °F 29.7 °F 30.31 in Calm     29% 0.00 in meteobridge W/m2
19:19 62.1 °F 30.2 °F 30.31 in Calm     30% 0.00 in meteobridge W/m2
19:24 61.9 °F 29.3 °F 30.32 in Calm     29% 0.00 in meteobridge W/m2
19:29 61.5 °F 29.8 °F 30.31 in Calm     30% 0.00 in meteobridge W/m2
19:34 61.3 °F 29.7 °F 30.32 in Calm     30% 0.00 in meteobridge W/m2
19:39 61.2 °F 30.2 °F 30.32 in Calm     31% 0.00 in meteobridge W/m2
19:44 60.8 °F 30.0 °F 30.32 in Calm     31% 0.00 in meteobridge W/m2
19:49 60.4 °F 28.9 °F 30.32 in Calm     30% 0.00 in meteobridge W/m2
19:54 59.9 °F 30.0 °F 30.32 in Calm     32% 0.00 in meteobridge W/m2
19:59 59.5 °F 29.7 °F 30.32 in Calm     32% 0.00 in meteobridge W/m2
20:04 59.2 °F 30.0 °F 30.32 in Calm     33% 0.00 in meteobridge W/m2
20:09 58.6 °F 30.4 °F 30.32 in Calm     34% 0.00 in meteobridge W/m2
20:14 57.9 °F 30.4 °F 30.32 in Calm     35% 0.00 in meteobridge W/m2
20:19 57.4 °F 30.0 °F 30.32 in Calm     35% 0.00 in meteobridge W/m2
20:24 56.8 °F 30.2 °F 30.32 in Calm     36% 0.00 in meteobridge W/m2
20:29 56.5 °F 30.6 °F 30.32 in Calm     37% 0.00 in meteobridge W/m2
20:34 55.9 °F 31.3 °F 30.32 in Calm     39% 0.00 in meteobridge W/m2
20:39 55.2 °F 30.7 °F 30.32 in Calm     39% 0.00 in meteobridge W/m2
20:44 54.7 °F 30.9 °F 30.32 in Calm     40% 0.00 in meteobridge W/m2
20:49 54.0 °F 31.5 °F 30.32 in Calm     42% 0.00 in meteobridge W/m2
20:54 53.4 °F 32.0 °F 30.32 in Calm     44% 0.00 in meteobridge W/m2
20:59 52.9 °F 31.6 °F 30.32 in Calm     44% 0.00 in meteobridge W/m2
21:04 52.5 °F 31.8 °F 30.33 in Calm     45% 0.00 in meteobridge W/m2
21:09 52.2 °F 32.0 °F 30.33 in Calm     46% 0.00 in meteobridge W/m2
21:14 51.4 °F 31.8 °F 30.33 in Calm     47% 0.00 in meteobridge W/m2
21:19 51.3 °F 32.2 °F 30.33 in Calm     48% 0.00 in meteobridge W/m2
21:24 50.5 °F 32.0 °F 30.33 in Calm     49% 0.00 in meteobridge W/m2
21:29 50.2 °F 31.8 °F 30.33 in Calm     49% 0.00 in meteobridge W/m2
21:34 49.8 °F 32.0 °F 30.33 in Calm     50% 0.00 in meteobridge W/m2
21:39 49.5 °F 32.0 °F 30.33 in Calm     51% 0.00 in meteobridge W/m2
21:44 49.3 °F 32.4 °F 30.33 in Calm     52% 0.00 in meteobridge W/m2
21:49 48.9 °F 32.5 °F 30.33 in Calm     53% 0.00 in meteobridge W/m2
21:54 48.6 °F 32.7 °F 30.33 in Calm     54% 0.00 in meteobridge W/m2
21:59 48.4 °F 32.5 °F 30.33 in Calm     54% 0.00 in meteobridge W/m2
22:04 48.2 °F 32.4 °F 30.33 in Calm     54% 0.00 in meteobridge W/m2
22:08 48.0 °F 32.5 °F 30.33 in Calm     55% 0.00 in meteobridge W/m2
22:14 47.7 °F 32.7 °F 30.33 in Calm     56% 0.00 in meteobridge W/m2
22:19 47.7 °F 32.7 °F 30.33 in Calm     56% 0.00 in meteobridge W/m2
22:24 47.5 °F 32.5 °F 30.33 in Calm     56% 0.00 in meteobridge W/m2
22:29 47.1 °F 33.1 °F 30.33 in Calm     58% 0.00 in meteobridge W/m2
22:34 46.9 °F 32.9 °F 30.33 in Calm     58% 0.00 in meteobridge W/m2
22:39 46.6 °F 33.1 °F 30.33 in Calm     59% 0.00 in meteobridge W/m2
22:44 46.6 °F 33.4 °F 30.33 in Calm     60% 0.00 in meteobridge W/m2
22:49 46.2 °F 34.0 °F 30.33 in Calm     62% 0.00 in meteobridge W/m2
22:54 46.0 °F 33.3 °F 30.33 in Calm     61% 0.00 in meteobridge W/m2
22:59 46.0 °F 32.9 °F 30.33 in Calm     60% 0.00 in meteobridge W/m2
23:04 46.0 °F 33.3 °F 30.33 in Calm     61% 0.00 in meteobridge W/m2
23:09 45.9 °F 33.6 °F 30.33 in Calm     62% 0.00 in meteobridge W/m2
23:14 45.7 °F 33.8 °F 30.33 in Calm     63% 0.00 in meteobridge W/m2
23:19 45.5 °F 33.6 °F 30.33 in Calm     63% 0.00 in meteobridge W/m2
23:24 45.1 °F 33.3 °F 30.33 in Calm     63% 0.00 in meteobridge W/m2
23:29 45.1 °F 33.6 °F 30.32 in Calm     64% 0.00 in meteobridge W/m2
23:34 45.0 °F 34.3 °F 30.32 in Calm     66% 0.00 in meteobridge W/m2
23:39 44.8 °F 33.8 °F 30.32 in Calm     65% 0.00 in meteobridge W/m2
23:44 44.4 °F 33.4 °F 30.32 in Calm     65% 0.00 in meteobridge W/m2
23:49 44.2 °F 33.3 °F 30.32 in Calm     65% 0.00 in meteobridge W/m2
23:54 44.2 °F 33.3 °F 30.32 in Calm     65% 0.00 in meteobridge W/m2
23:59 44.1 °F 33.4 °F 30.32 in Calm     66% 0.00 in meteobridge W/m2
EllijayWeather
Compliments of Weather Underground - 2.5 mb